Flag for U.S.A. Weather past 2 weeks in Pomona, California, U.S.A.

Now
58 °F

Clear.


Feels Like: 58 °F
Forecast: 55 / 85 °F
Wind: No wind

Location: Chino Airport

Current Time: Apr 27, 2015 at 12:49:42 AM

Latest Report: Apr 26, 2015 at 11:53 PM


Visibility: 9 mi

Pressure: 29.94 "Hg

Humidity: 65%

Dew point: 46 °F

Location of PomonaLocation

Historic Weather in Pomona — Graph

°F

Pomona temperature yesterday

Maximum temperature yesterday: 77 °F (at 2:53 PM)
Minimum temperature yesterday: 47 °F (at 4:53 AM)
Average temperature yesterday: 62 °F

Past Weeks' High & Low Weather Summary

 TemperatureHumidityPressure
High87 °F (Apr 17, 1:53 PM)93% (Apr 19, 6:53 AM)30.11 "Hg (Apr 19, 6:53 AM)
Low47 °F (Apr 26, 4:53 AM)6% (Apr 16, 12:53 PM)29.80 "Hg (Apr 20, 3:53 PM)
Average64 °F55%29.95 "Hg
* Reported Apr 11 10:53 PM — Apr 26 10:53 PM, Pomona, Weather by CustomWeather, © 2015

Note: Actual official high and low records may vary slightly from our data, if they occured in-between our weather recording intervals... More about our weather records

Advertising

Pomona weather history for previous 24 hours

 ConditionsComfort  
Time TempWeatherWind HumidityBarometerVisibility
10:53 PM
Sun, Apr 26
58 °FClear.No wind65%29.94 "Hg9 mi
9:53 PM59 °FClear.5 mph64%29.93 "Hg10 mi
8:53 PM63 °FClear.5 mph48%29.92 "Hg10 mi
7:53 PM65 °FPartly sunny.No wind44%29.90 "Hg10 mi
6:53 PM69 °FPartly sunny.13 mph38%29.88 "Hg10 mi
5:53 PM72 °FPartly sunny.17 mph37%29.88 "Hg10 mi
4:53 PM75 °FPartly sunny.16 mph36%29.89 "Hg10 mi
3:53 PM77 °FPartly sunny.14 mph37%29.90 "Hg10 mi
2:53 PM77 °FPartly sunny.14 mph35%29.93 "Hg10 mi
1:53 PM76 °FScattered clouds.9 mph32%29.94 "Hg10 mi
12:53 PM73 °FScattered clouds.9 mph40%29.96 "Hg10 mi
11:53 AM71 °FScattered clouds.13 mph45%29.98 "Hg10 mi
10:53 AM66 °FScattered clouds.7 mph61%30.01 "Hg10 mi
9:53 AM61 °FBroken clouds.5 mph70%30.01 "Hg10 mi
8:53 AM58 °FScattered clouds.No wind78%30.01 "Hg6 mi
7:53 AM56 °FScattered clouds.3 mph84%30.00 "Hg6 mi
6:53 AM52 °FPassing clouds.No wind93%29.98 "Hg6 mi
5:53 AM50 °FFog.No wind89%29.97 "Hg5 mi
4:53 AM47 °FFog.No wind90%29.95 "Hg3 mi
4:02 AM48 °FFog.3 mph89%29.95 "Hg1 mi
3:59 AM48 °FFog.5 mph93%29.95 "Hg1 mi
2:59 AM51 °FFog.No wind92%29.93 "Hg2 mi
1:53 AM51 °FFog.3 mph89%29.92 "Hg6 mi
12:53 AM54 °FPassing clouds.No wind86%29.93 "Hg8 mi
Weather by CustomWeather, © 2015

See weather overviewHow to use our weather pages